STARLINK-3090, 49132

Orbit data source: Space-Track

STARLINK-3090, 49132 is a payload satellite owned by SpaceX/Seattle (US) in LEO that was launched on Tue, 14 Sep 2021 UTC via an FALCON 9 launch vehicle from the Air Force Western Test Range (AFWTR). Payload-class satellites include a variety of spacecraft equipped with specific instruments for various scientific and technological missions. These include communications satellites like Starlink; space stations such as the ISS; scientific satellites like the Hubble; Earth observation satellites from companies like Planet Labs, Umbra, and HawkEye 360; GPS; miniature CubeSats for education and research; and military/defense satellites.

Loading next visibility...
Identifier
49132, 2021-082C
Orbit
LEO
Country
Flag of USUS
Related business
Manufacturer
SpaceX/Seattle
Mission
Operational Commercial Communications
Bus & Motor
STARLINK, Unknown motor
Mass
297 kg wet, ~275 kg dry
Launch date (UTC)
2021-09-14 (4 years ago)
Launch vehicle
FALCON 9
Launch site
Air Force Western Test Range (AFWTR)
Object type
Payload
Rocket body
Debris
Shape & HBR
Box + 1 Pan, 10.1 m
Radar Cross Section
13.562 m², Large (>1 m²)

Expand to show TLE details & history
Last TLE update: 16 hours ago

TLE from 16 hours ago
0 STARLINK-3090
1 49132U 21082C   26035.32562196 -.00000047  00000-0  38733-5 0  9993
2 49132  70.0013  18.4528 0002619 263.4397  96.6464 14.98329631240986
Epoch: 2026-02-04T07:48Z
TLE epoch observation values (Epoch: 2026-02-04T07:48:53.737Z)
Latitude
-0.00001°
Longitude
126.73507°
Altitude
574.692 km
Speed
7.574 km/s
True Right ascension
01h 13m 48s
True Declination
0° 00' 00"
Sunlit
Object was in daylight at epoch
Visualization orbit readout
Latitude
Unknown
Longitude
Unknown
Altitude
Unknown
Speed
Unknown
Apparent Right ascension
Unknown
Apparent Declination
Unknown
Sunlit
N/A
Visualization observer readout
Local Sidereal Time
01:43:10
Azimuth
Unknown
Elevation
Unknown
Doppler factor
Unknown
Orbital elements
Apogee altitude
571.825 km
Perigee altitude
568.185 km
Semi-major axis
6,948.142 km
Eccentricity
0.00026
Inclination
70.0013°
RAAN
18.4528°
Arg. of periapsis
263.4397°
True anomaly
96.67621°
Mean anomaly
96.6464°
Eccentric anomaly
96.6613°
Mean motion
3.74749 °/min
Orbital period
96.06 mins
BSTAR
0.0000038733
Loading maneuver chart data...
Computing Atmospheric mass density...
Loading historical data...
Loading historical data...
Loading historical data...
Loading historical data...
Loading historical data...
Loading historical data...
Loading historical data...

Documentation

Showing up to 5 results
|